Theta_e
316 316 316 316 317 320 320 320 320 320 319 319 318 316 316 315 315 317 318 318 318 318 318 317 318 317 319 319 319 320 319 319 320 321 320 324 328 328 328 328 331 333 332 330 327 328 330 329 330 330 331 333 332 332 329 330 331 319 312 314 312 312 313 310 314 321 326 325 323 324 324 322 322 322 321 322 323 321 320 321 321 321 322 323 323 325
317 316 316 318 320 322 322 322 321 320 319 318 318 316 316 316 315 318 318 319 319 318 317 318 318 318 318 319 320 320 320 320 319 321 321 320 322 323 326 328 331 333 331 329 328 328 328 328 329 329 330 333 332 334 331 331 333 323 313 315 312 312 312 311 318 325 326 324 322 322 323 322 321 322 323 322 320 315 311 311 312 310 313 318 319 319
317 315 316 318 321 321 320 320 320 320 319 317 317 315 314 315 316 318 319 319 318 317 317 318 317 318 319 319 320 320 320 320 319 320 320 320 322 320 323 328 331 331 330 329 328 328 328 327 329 329 329 331 331 334 333 332 335 327 315 314 312 311 312 312 318 323 323 323 323 322 322 322 322 323 322 319 316 313 309 308 309 306 312 320 322 319
315 316 317 319 319 320 319 318 319 318 318 316 317 314 313 316 315 315 318 320 319 318 317 317 318 318 320 319 319 320 320 320 320 320 320 319 321 321 320 326 331 330 329 330 329 328 327 326 328 329 329 329 329 333 335 334 335 329 318 314 312 311 311 312 316 317 316 317 320 319 320 320 319 317 316 312 310 311 310 308 307 306 309 316 320 321
314 317 319 319 319 319 317 318 318 316 316 316 317 315 314 316 315 315 318 320 320 320 320 319 317 317 319 319 319 320 320 320 320 320 320 319 320 321 320 325 329 329 328 330 330 328 326 326 326 327 329 328 327 332 335 334 333 329 321 315 312 312 312 311 313 314 312 312 313 313 314 315 311 309 313 313 312 314 314 310 308 308 308 311 316 320
315 318 319 318 317 318 316 316 318 318 316 316 317 317 316 317 318 318 318 319 318 318 320 319 316 315 317 318 319 319 320 320 321 319 319 319 319 321 320 322 327 329 328 329 330 328 327 328 326 326 327 328 329 332 334 333 332 328 323 316 312 312 312 312 312 312 311 310 310 309 309 310 308 312 318 318 318 320 317 311 309 308 307 309 312 314
316 317 318 318 317 317 317 316 317 319 316 315 317 318 318 318 318 318 318 318 316 316 319 320 317 315 316 317 319 319 319 319 320 320 320 320 319 320 321 319 323 328 328 328 329 328 329 329 328 327 326 326 328 330 332 332 331 330 325 318 313 313 312 312 312 311 311 311 309 308 309 311 314 319 321 318 317 316 311 308 309 308 308 310 310 311
317 317 317 317 317 317 316 316 317 318 316 316 319 318 317 318 318 318 317 317 317 317 318 319 317 315 315 316 318 318 319 319 320 320 320 320 320 319 320 320 320 323 326 328 327 327 329 328 328 329 327 326 327 328 331 331 330 330 326 318 314 314 312 312 312 311 311 311 309 310 314 317 320 322 319 313 311 310 307 308 313 316 313 313 312 314
318 317 317 317 316 316 315 316 317 317 316 317 320 318 317 319 318 318 317 316 317 317 316 316 317 315 314 317 319 318 318 320 320 321 320 320 319 319 319 319 320 320 322 326 326 328 330 329 328 328 327 327 327 329 332 332 329 329 327 321 317 315 313 312 312 311 311 311 309 313 317 319 320 319 313 310 308 308 308 309 316 319 312 310 310 310
317 317 317 317 316 316 316 316 317 317 318 318 318 318 318 318 318 318 318 316 317 317 316 316 316 315 315 316 318 317 317 319 321 321 320 320 320 320 320 321 321 321 320 322 323 325 328 328 328 328 327 327 325 327 332 333 329 328 327 324 321 318 315 313 312 311 311 311 310 313 318 319 320 317 312 311 309 308 308 308 311 313 309 307 308 308
317 317 317 316 315 316 316 317 317 317 318 318 318 318 317 318 318 318 318 317 317 317 316 316 316 316 314 315 317 318 318 319 321 321 320 321 321 320 321 321 321 320 320 320 320 321 323 324 326 327 328 330 326 326 332 334 331 328 327 325 323 320 317 314 312 311 311 311 310 312 317 320 320 316 313 312 309 308 309 309 310 312 311 309 308 308
315 316 315 315 315 315 315 315 316 317 317 317 317 316 316 316 316 317 317 317 317 317 316 316 317 315 314 315 318 319 319 320 320 319 320 321 321 320 320 320 320 320 320 320 321 322 322 322 323 324 327 330 330 330 332 335 334 330 328 327 325 321 319 316 313 312 313 311 310 311 316 321 320 315 313 311 309 309 309 310 312 313 311 309 308 308
315 315 315 315 315 314 313 313 313 315 315 315 315 314 315 315 316 317 317 317 318 317 316 317 316 315 314 316 318 318 318 319 319 319 320 320 320 321 320 319 320 320 321 321 323 325 324 323 323 324 325 326 329 332 332 334 335 332 329 329 327 322 320 318 314 313 313 311 311 311 314 320 320 316 314 312 309 310 311 311 312 312 312 310 308 308
314 316 315 315 315 314 313 312 312 313 314 315 313 313 314 315 317 318 317 317 318 317 316 317 317 315 315 317 318 318 318 319 319 319 320 320 321 320 319 320 321 321 323 325 326 327 328 327 324 324 326 327 330 332 332 333 335 333 331 330 328 324 321 318 316 314 313 311 312 312 313 318 319 315 315 315 311 310 313 314 313 314 316 313 309 309
314 314 315 315 315 315 315 313 313 313 314 315 315 314 315 315 317 318 317 316 317 316 316 317 316 315 315 318 319 318 318 318 318 318 319 320 320 319 319 320 321 323 326 328 328 327 328 329 329 327 328 330 331 332 331 332 333 332 332 331 330 327 324 320 317 314 313 311 312 312 312 315 317 313 314 318 315 312 316 318 315 316 318 315 311 310
312 313 315 316 315 314 314 314 315 314 313 315 315 315 315 315 316 316 316 316 315 315 315 315 315 316 317 319 319 319 318 317 317 318 318 319 319 320 321 321 323 324 327 329 329 328 327 327 329 329 329 329 330 331 331 330 330 331 331 331 330 329 326 323 319 315 313 311 311 313 312 313 315 312 312 318 319 316 318 320 317 316 319 317 313 311
312 312 315 315 315 315 315 315 315 314 313 314 314 314 315 316 316 314 315 315 315 316 316 314 315 315 317 318 318 318 317 316 316 317 317 319 320 320 322 323 323 324 326 327 328 328 327 327 327 327 328 328 329 329 329 329 329 328 329 330 329 329 328 326 321 316 313 311 312 313 313 313 315 314 311 315 320 319 318 320 319 316 318 319 316 311
313 313 314 315 314 315 315 315 314 314 314 312 312 314 314 315 315 315 314 314 315 316 316 314 314 314 314 315 317 317 317 316 316 317 318 320 321 322 322 322 323 324 325 326 327 327 326 326 326 327 327 326 327 327 328 328 328 328 328 328 328 328 328 328 325 319 314 312 314 313 314 316 318 318 316 316 318 319 318 319 320 318 318 319 319 314
314 312 314 314 314 315 315 315 313 314 315 312 313 314 313 313 313 314 314 314 315 316 315 314 314 313 312 315 317 317 317 317 316 316 318 318 319 321 322 322 323 324 324 324 325 326 326 326 326 326 326 326 326 326 326 326 326 327 327 327 328 327 327 327 327 324 318 316 318 317 316 318 321 321 321 320 319 319 320 320 319 319 318 319 320 317
314 313 314 314 313 314 314 314 313 313 314 313 313 314 313 312 313 313 313 313 314 314 315 315 313 313 315 317 317 317 317 317 317 317 317 318 320 321 322 322 322 323 324 324 323 324 325 325 326 326 325 325 326 325 325 325 325 326 326 326 327 326 326 326 326 326 324 321 321 322 320 320 322 323 324 323 321 320 321 321 320 320 319 319 320 319
314 314 314 314 314 313 313 313 313 312 314 314 313 313 313 313 313 313 313 312 313 314 314 315 313 315 318 319 317 318 318 318 318 317 317 319 320 321 321 322 322 322 322 323 324 323 323 323 324 325 325 325 325 325 325 325 325 325 325 325 326 325 326 326 325 325 325 324 324 324 324 324 324 324 324 324 323 322 322 322 321 320 320 319 319 319
314 314 313 313 312 312 312 313 314 314 314 314 313 314 314 315 314 314 315 314 314 314 315 315 315 316 319 319 318 318 318 318 318 317 318 320 320 321 321 321 321 321 321 321 322 323 322 322 322 323 324 325 325 325 325 324 324 325 325 325 325 325 325 324 324 324 324 324 324 324 324 324 324 323 323 323 322 322 322 322 321 319 319 319 318 319
315 314 313 313 312 312 313 314 313 313 314 314 314 314 314 314 314 313 314 314 313 314 315 316 316 318 319 319 319 318 318 318 318 317 318 320 320 320 320 320 319 319 319 318 319 320 321 321 321 321 322 324 324 325 325 325 325 325 325 325 325 324 324 323 323 323 323 323 324 323 323 323 322 322 323 323 323 322 322 323 321 319 319 319 317 318
314 313 313 312 313 312 312 312 312 313 312 312 313 313 313 313 313 313 313 313 313 313 313 314 315 317 319 319 318 319 317 318 318 318 319 320 320 319 319 319 318 317 317 316 316 317 317 317 318 319 319 319 320 321 323 325 325 325 325 325 325 324 324 323 322 322 322 322 322 322 322 322 321 321 322 322 321 320 321 321 322 321 322 321 319 319
313 313 313 312 312 312 312 311 311 312 312 312 313 314 314 313 313 314 313 314 314 314 314 315 315 317 318 317 317 317 316 317 317 317 318 319 319 318 317 317 317 316 316 315 315 315 315 315 315 315 316 316 316 316 317 319 320 322 323 323 324 323 323 323 323 322 322 320 318 317 319 321 320 320 321 321 320 320 319 320 321 322 322 321 320 319
313 314 313 313 312 313 313 312 311 311 312 312 313 313 314 313 314 314 313 313 315 315 314 315 315 317 317 316 316 316 315 316 316 317 318 318 317 317 317 317 316 316 315 315 315 314 314 314 313 313 313 314 314 314 314 314 315 316 316 318 320 321 321 320 321 321 320 319 318 318 320 321 320 320 321 322 322 321 320 318 318 320 321 320 319 318
313 313 313 313 312 312 312 311 311 312 312 312 312 312 313 313 313 314 313 313 314 315 314 315 315 316 316 315 315 316 315 315 315 317 318 317 317 317 317 317 316 316 316 315 315 315 314 314 314 313 313 312 313 313 313 313 313 313 313 313 314 315 316 317 318 319 320 320 321 321 321 320 319 318 318 318 319 320 319 318 317 319 319 317 317 317
311 311 311 312 311 311 311 311 311 311 311 311 311 312 313 313 313 314 314 313 314 314 313 314 315 315 315 314 315 315 315 315 315 316 317 317 316 316 316 316 316 316 316 315 315 315 315 314 313 313 313 313 313 313 313 313 313 313 313 312 310 308 309 311 312 315 317 318 319 319 317 315 314 314 312 312 315 319 320 320 319 318 318 317 317 317
310 310 311 311 311 311 310 311 311 311 311 311 311 311 312 312 312 313 314 314 314 314 313 313 315 315 314 313 314 314 315 315 315 316 316 316 316 316 316 316 316 315 315 315 315 315 315 315 314 313 312 312 312 312 312 312 312 312 312 312 310 308 307 307 307 309 310 310 311 311 310 308 307 309 309 308 310 313 315 315 313 313 315 316 316 315
311 311 311 311 311 311 310 311 311 310 311 310 311 311 311 311 312 313 313 313 313 314 313 313 315 315 314 313 313 314 314 314 314 314 314 314 314 315 316 316 315 314 314 314 314 315 315 314 313 312 312 311 311 311 311 311 312 311 311 310 310 309 308 307 307 308 308 309 309 308 307 307 307 307 308 308 309 310 310 312 313 314 315 315 315 315
312 311 311 311 311 311 311 310 310 310 310 310 310 310 310 311 312 312 313 313 314 314 314 315 316 315 314 313 313 313 313 314 313 313 313 314 314 314 315 315 315 314 313 313 313 314 314 314 313 312 311 311 311 311 310 310 311 311 310 309 309 308 308 308 306 305 306 307 308 307 307 308 309 310 310 310 311 312 312 314 316 317 318 317 316 317
311 310 311 311 311 311 310 309 310 309 309 309 310 311 311 311 312 312 313 313 314 314 314 314 314 313 313 313 313 313 313 313 313 313 313 313 313 313 313 314 314 313 313 312 312 313 312 313 312 311 311 311 310 310 309 308 309 310 309 308 308 307 307 306 305 305 305 306 306 306 307 307 307 308 309 309 309 310 311 313 314 316 317 317 317 317
310 310 310 310 310 310 309 309 310 310 310 310 311 312 311 311 311 312 312 313 313 313 313 312 312 312 312 312 312 312 312 312 312 313 313 313 312 312 312 312 313 313 313 312 312 312 312 311 311 311 311 310 309 310 309 307 308 310 309 308 307 307 306 306 306 307 308 308 307 307 307 307 307 307 307 308 308 309 309 310 312 314 315 316 317 317
310 310 309 309 309 309 309 310 310 310 310 310 311 311 311 311 311 311 312 312 311 311 311 311 311 311 311 311 311 311 311 311 312 312 312 313 313 312 312 312 312 313 313 312 312 311 311 310 310 311 310 309 310 309 308 307 308 309 308 307 307 308 308 307 307 308 308 308 308 308 308 307 307 307 307 308 308 308 308 309 309 310 312 314 316 316
309 309 308 308 309 308 309 309 309 310 310 310 310 311 310 310 310 310 310 310 309 309 310 310 310 310 310 310 310 311 310 310 311 311 311 312 312 311 311 311 312 312 312 312 311 310 310 310 310 310 309 309 309 308 307 307 308 308 307 308 308 308 308 307 307 307 308 308 307 308 308 308 308 308 308 308 307 307 308 308 308 309 309 312 314 315
309 308 308 308 308 308 308 308 309 309 309 309 310 311 311 310 309 309 309 309 309 309 309 310 310 309 309 310 309 309 309 309 309 309 310 310 310 310 310 310 310 311 311 311 310 309 310 310 309 309 309 309 308 307 307 307 308 308 307 308 308 308 308 307 307 307 307 307 307 307 307 307 308 309 309 308 307 307 307 307 308 308 308 310 312 314
308 308 308 308 308 308 308 308 309 309 308 309 311 310 310 310 310 309 309 309 309 309 308 308 308 308 309 309 308 308 308 308 308 309 309 309 309 308 308 308 309 309 309 310 310 309 309 309 309 308 308 308 308 307 307 307 307 307 307 307 307 307 307 307 307 307 307 307 307 307 307 307 308 309 308 308 308 307 307 306 306 307 307 309 310 312
308 308 308 308 307 307 307 307 307 308 308 309 310 309 309 309 309 309 308 308 308 308 308 307 307 307 308 308 307 308 307 307 308 309 308 308 308 307 307 307 307 307 307 308 308 309 308 307 307 307 307 307 306 306 306 306 306 306 307 307 307 307 307 307 307 307 307 307 307 307 307 307 308 308 308 308 307 307 306 304 303 304 306 307 309 311
308 308 307 307 307 307 307 307 307 307 308 309 309 308 307 307 308 307 307 306 307 307 306 306 306 307 307 306 306 306 306 306 307 308 307 307 307 306 306 306 306 306 306 306 306 306 306 306 306 305 305 305 305 305 305 306 306 306 306 306 306 306 306 307 307 307 307 307 307 307 306 306 307 308 308 307 307 307 306 304 302 302 304 306 308 310
307 307 306 306 306 307 307 306 306 306 308 308 307 306 306 307 306 306 306 305 305 305 306 306 306 306 305 305 306 306 305 306 306 306 306 306 306 306 306 306 305 306 305 305 305 305 305 305 305 305 305 304 304 305 305 305 305 305 305 306 305 306 306 306 306 306 306 306 306 306 306 306 306 307 307 308 308 308 307 306 303 301 302 305 308 310
306 306 306 306 306 306 307 306 306 306 307 306 306 306 305 306 306 305 304 304 304 304 305 304 304 304 304 304 304 304 304 305 305 305 305 305 305 305 305 305 305 305 305 305 304 304 304 304 304 304 304 304 304 304 304 305 305 305 305 305 305 305 305 305 306 306 306 306 306 306 306 306 305 306 306 307 308 308 308 307 305 304 304 305 308 310
305 305 306 306 305 305 306 305 306 306 305 305 305 305 305 305 305 303 303 303 303 303 303 303 303 303 303 303 303 303 303 303 303 304 304 304 304 304 304 304 304 304 304 304 304 304 303 303 303 303 303 304 304 304 304 304 304 305 305 305 306 306 306 306 306 306 306 306 306 306 305 305 305 305 305 306 307 307 307 307 307 307 307 307 309 310
305 305 305 305 305 305 305 305 305 305 304 303 303 303 303 304 303 302 302 302 302 302 302 302 302 302 302 302 302 302 302 302 302 303 302 303 303 303 303 304 304 304 304 304 304 304 303 303 303 303 303 303 303 303 303 303 303 304 304 304 305 305 306 306 306 306 306 305 305 306 306 305 305 305 305 305 306 307 307 308 308 308 309 309 310 310
304 303 304 304 304 303 304 304 304 303 302 302 303 302 302 302 302 302 302 301 301 301 301 301 301 301 301 301 301 301 301 301 301 301 301 302 302 302 302 302 303 303 303 303 303 303 303 303 303 303 303 303 303 302 302 302 303 303 303 304 304 305 305 305 305 305 305 305 305 305 305 304 304 305 305 306 306 307 308 308 308 309 309 310 310 310
303 303 303 302 302 302 302 303 303 302 302 302 302 301 301 301 301 301 301 300 300 300 300 300 300 300 300 300 300 300 300 300 300 300 300 300 300 301 301 301 301 301 302 302 302 302 302 302 302 302 302 302 302 302 302 302 302 302 303 303 303 304 304 305 305 304 304 304 304 305 305 305 305 305 306 307 307 307 308 308 308 308 309 309 309 310
302 302 302 301 301 301 301 301 302 302 301 301 301 300 300 300 300 300 300 300 300 300 299 299 299 299 299 299 299 299 299 299 299 299 300 300 300 300 300 300 300 300 300 301 301 301 301 301 301 301 301 302 302 302 302 302 302 302 302 303 302 303 304 304 304 304 304 304 304 305 305 305 305 305 306 307 307 307 307 307 307 308 308 308 309 309
301 300 300 300 300 300 300 300 300 300 300 300 300 300 300 300 299 299 299 299 299 299 299 299 299 299 299 299 299 299 299 299 300 300 300 299 299 300 300 300 300 300 300 300 300 300 300 300 301 301 301 301 301 302 302 302 302 302 302 302 302 303 303 304 304 305 305 305 305 304 305 305 305 305 305 306 306 307 307 307 307 307 307 308 309 308
300 299 299 300 300 299 299 300 300 299 299 299 299 299 299 299 299 299 299 299 299 299 299 299 299 299 299 299 299 299 299 300 300 300 300 300 300 300 300 300 300 300 299 300 300 300 300 300 300 301 301 301 301 301 302 302 302 302 302 303 302 302 303 303 304 304 304 304 304 304 304 304 304 305 306 306 306 306 306 306 306 306 306 307 308 307
300 299 299 299 299 299 299 299 299 299 299 299 299 299 299 299 299 299 299 299 299 299 299 299 299 299 299 299 299 299 300 300 300 300 300 300 300 300 300 300 300 300 300 300 300 300 300 300 300 300 300 301 301 301 302 302 302 302 302 302 302 302 302 303 303 303 304 304 304 304 304 304 304 305 305 305 306 306 306 306 306 306 306 306 306 306
299 299 299 299 298 298 298 299 299 299 298 299 299 299 299 299 299 299 299 299 299 299 299 299 299 299 300 299 299 299 300 300 300 300 300 300 300 299 299 300 300 300 300 300 300 300 300 300 300 300 301 301 301 301 302 302 302 302 302 302 302 302 302 302 303 303 303 303 303 303 303 304 304 305 305 305 306 307 307 307 306 306 305 305 305 305
298 298 298 298 298 298 299 299 299 299 299 299 299 299 299 299 299 299 299 299 299 299 299 299 299 299 299 299 299 299 299 299 299 299 299 299 299 299 299 299 299 300 300 300 300 300 300 300 300 300 301 301 301 301 301 302 302 302 302 302 302 302 302 302 303 303 303 303 304 303 304 304 304 305 305 306 306 307 306 306 306 305 305 304 305 305
Wind_Speed
9 7 6 8 5 3 4 3 4 8 11 11 12 10 6 7 7 6 7 10 5 5 7 9 11 12 8 8 11 9 9 8 8 7 6 12 20 27 26 27 27 23 22 20 21 21 20 19 18 20 19 17 18 18 18 19 17 19 19 17 16 14 12 11 10 11 9 6 6 7 5 5 5 3 4 6 4 2 3 4 3 2 3 4 4 4
6 6 8 9 1 3 5 8 8 7 9 9 10 9 5 6 7 3 6 9 6 2 5 6 11 9 9 11 9 6 3 8 5 9 7 8 11 14 17 27 27 22 22 21 22 25 22 21 21 22 23 20 20 20 19 19 18 19 19 17 16 14 12 11 12 13 10 6 5 6 6 5 5 6 6 4 1 1 1 1 1 1 1 0 1 3
5 8 13 11 2 2 3 6 7 8 8 8 7 7 6 7 6 5 8 4 5 3 5 6 9 9 10 9 4 5 7 4 7 11 12 10 11 12 10 25 29 24 25 23 23 26 24 23 23 23 24 23 21 20 20 20 19 19 19 18 16 14 13 12 12 14 13 10 8 8 8 7 7 8 5 0 2 4 5 5 4 3 4 5 5 6
6 5 7 5 4 2 5 5 6 7 6 7 6 6 7 8 8 2 6 2 1 1 3 7 8 9 8 4 3 10 11 6 8 13 15 12 11 12 9 22 31 26 26 25 24 26 25 24 25 25 25 24 23 22 22 22 21 21 20 19 17 15 14 13 13 13 12 12 11 11 11 8 6 7 5 1 3 6 7 7 7 6 5 5 6 8
11 2 7 6 5 0 4 4 5 5 5 7 8 9 9 9 9 5 4 5 4 4 3 8 8 6 7 4 6 10 7 8 11 14 13 12 11 11 10 16 31 30 27 26 25 26 26 26 26 26 25 24 25 26 26 25 24 23 22 20 18 16 15 14 13 11 9 10 9 8 10 8 5 7 6 5 7 7 6 6 8 8 7 6 6 7
8 2 6 5 2 3 4 5 7 6 6 7 9 10 12 13 11 6 1 4 2 5 5 7 7 5 7 8 10 11 8 9 11 10 9 10 10 11 10 10 22 29 26 23 25 26 26 25 26 27 26 25 26 28 29 27 26 24 22 21 20 18 17 15 13 11 10 10 8 8 11 10 9 10 8 6 7 6 4 5 7 8 8 8 7 6
3 1 2 3 2 4 7 8 8 7 7 6 3 6 10 11 11 9 6 4 4 5 4 7 6 4 5 8 8 8 10 10 8 8 8 10 10 9 10 8 12 23 24 20 21 22 25 25 23 26 28 27 27 29 30 29 27 25 24 23 21 19 18 16 14 12 11 10 10 11 12 11 11 11 9 7 7 6 4 5 6 7 8 9 9 9
4 4 2 4 4 5 8 7 8 9 8 4 2 6 10 9 10 10 9 7 6 6 3 7 8 6 5 7 5 4 6 9 9 8 8 11 13 12 12 11 12 19 23 25 22 20 25 26 24 26 27 27 28 29 30 30 29 26 25 24 22 20 18 17 15 13 12 11 12 14 14 12 11 10 9 8 7 6 5 6 7 7 7 8 8 8
3 3 4 4 8 6 7 9 10 12 9 5 3 5 9 10 11 10 8 7 6 7 6 7 8 6 5 7 5 5 6 7 9 10 9 9 8 9 10 6 5 5 9 19 21 21 26 28 26 28 27 25 29 30 28 31 31 28 27 26 23 22 19 17 16 15 13 12 13 15 15 13 11 11 9 8 7 6 5 5 6 5 4 6 7 7
4 6 4 6 7 6 10 11 8 9 7 5 5 6 8 11 11 8 7 7 5 6 7 7 7 6 5 6 5 7 8 7 7 7 8 6 3 4 3 4 5 3 2 5 10 16 22 25 25 25 24 23 28 31 29 29 31 29 28 27 25 23 21 18 17 16 15 14 14 16 17 15 13 11 10 8 7 6 5 4 5 4 4 5 6 7
6 4 3 7 8 8 11 8 2 5 7 4 4 7 8 9 8 6 5 5 5 6 8 11 11 9 6 5 5 2 6 5 4 5 6 6 5 4 5 3 2 2 1 0 3 6 11 17 19 18 20 22 25 29 28 26 28 29 29 28 26 24 22 19 19 18 16 15 15 16 19 16 13 13 12 10 8 7 6 4 4 3 3 4 5 5
8 7 6 8 10 10 11 9 4 6 8 6 5 6 7 6 5 4 4 5 6 6 6 9 11 10 7 3 2 5 7 3 3 8 8 7 7 6 6 2 1 2 1 0 2 3 4 8 12 14 18 19 20 24 26 24 25 27 29 28 27 26 24 21 21 19 18 17 16 17 20 17 14 14 14 10 9 8 6 5 3 2 2 3 4 4
7 7 7 9 9 9 9 7 6 7 7 6 6 6 6 5 3 4 5 5 5 6 5 6 7 6 6 4 4 6 7 6 4 7 9 7 9 9 5 4 3 2 1 2 6 7 4 3 7 12 15 16 18 22 24 22 22 24 27 28 28 28 26 24 22 21 19 19 18 17 19 19 16 15 14 11 10 9 7 6 5 2 1 3 4 3
5 8 10 8 9 9 7 6 6 5 6 6 6 5 5 4 4 5 5 5 5 6 6 4 4 3 4 3 5 7 7 8 6 6 7 7 9 7 4 5 5 4 6 7 8 9 6 4 2 7 10 13 19 22 21 20 20 21 25 27 28 28 28 26 24 23 21 20 19 17 19 20 18 16 15 12 11 10 8 7 5 4 2 0 2 2
6 6 7 8 6 9 7 8 7 6 4 6 6 5 5 4 5 5 4 5 4 4 4 3 2 2 1 1 3 7 7 8 6 7 9 8 8 7 4 5 7 8 10 10 10 10 8 7 5 4 5 8 15 19 19 19 18 19 22 25 26 27 27 27 26 24 23 22 21 18 19 20 18 17 16 13 11 11 10 9 7 6 5 4 1 2
8 6 5 7 3 5 5 7 6 8 6 3 3 4 5 4 4 5 4 5 4 4 4 3 3 1 2 1 2 6 6 6 8 10 10 9 9 9 7 8 9 9 10 11 11 10 9 9 7 5 4 5 9 14 16 16 16 16 19 22 25 25 25 27 26 25 24 23 23 20 19 20 19 17 17 15 12 11 12 11 9 9 8 6 4 2
6 5 2 6 4 4 9 7 3 4 4 3 2 3 4 4 5 5 5 5 4 4 5 3 5 3 3 4 5 6 7 8 9 9 11 11 10 10 9 10 10 10 10 10 10 10 10 10 8 7 5 4 6 8 11 13 14 15 17 20 23 25 24 24 25 25 24 24 24 21 20 20 19 17 17 16 13 12 12 13 12 10 10 9 8 6
3 4 2 3 6 9 9 5 6 7 6 4 3 3 2 4 6 5 4 4 4 5 4 4 7 6 4 4 6 8 8 9 10 9 11 11 10 10 10 10 11 11 11 11 11 12 11 11 10 8 5 4 4 6 8 10 12 14 16 17 21 24 23 22 22 24 25 25 23 22 21 20 19 16 15 15 13 12 12 13 13 12 11 11 11 10
2 5 5 6 10 8 7 3 6 9 10 9 7 6 3 3 4 3 3 4 5 5 4 5 8 7 4 2 6 10 10 9 10 9 10 10 10 11 11 11 11 12 12 11 11 11 12 11 11 10 8 7 5 6 8 10 11 13 15 15 18 22 22 20 19 20 21 22 22 21 21 20 19 17 15 14 14 13 13 13 14 13 12 12 13 13
3 4 4 7 11 8 4 4 4 6 8 11 8 6 5 4 3 3 4 3 4 5 5 6 7 3 1 1 4 7 8 8 8 7 8 9 12 12 11 11 11 11 12 11 11 11 10 10 12 12 11 11 11 8 8 9 9 11 12 13 15 18 20 20 19 18 17 18 18 17 18 18 18 17 16 14 15 14 13 14 14 12 12 13 13 15
3 3 3 6 9 8 4 4 4 5 4 5 5 5 5 4 3 4 4 4 5 6 5 5 5 1 3 2 1 3 3 2 4 6 6 9 13 13 11 12 12 12 12 12 12 11 10 10 11 11 10 12 14 13 12 11 10 10 12 13 15 15 16 17 16 14 14 15 15 15 16 16 16 15 14 13 13 14 14 15 15 14 13 14 14 15
2 2 4 6 6 7 6 5 6 6 5 5 4 4 5 4 3 4 5 5 5 4 4 6 5 1 3 4 2 1 3 3 3 6 7 12 15 13 12 12 12 13 13 13 13 12 11 11 10 9 9 10 12 13 13 14 14 13 13 14 15 15 14 13 13 12 13 14 14 13 12 12 12 13 14 13 13 14 16 17 17 17 16 16 16 15
3 3 5 6 6 8 10 11 11 8 5 7 7 6 7 6 4 4 5 5 5 4 4 6 5 1 2 5 5 3 1 1 5 5 9 15 15 13 13 13 13 14 14 13 14 14 13 13 12 11 11 10 12 12 12 14 15 17 18 18 19 20 19 16 14 14 12 11 11 11 11 11 11 12 13 15 16 15 15 17 19 19 18 17 17 16
3 3 4 6 7 8 11 13 14 10 7 7 7 6 7 8 7 7 7 5 5 6 5 5 5 0 1 4 4 4 1 4 6 7 13 16 14 14 14 14 14 14 14 14 14 14 14 13 13 13 12 11 10 10 11 13 13 15 16 17 19 22 22 20 18 17 15 13 9 8 9 11 11 12 12 14 16 16 16 17 18 18 18 17 16 16
2 3 4 6 6 6 8 8 9 8 6 4 4 5 7 9 10 9 7 4 5 7 6 6 6 0 2 1 2 2 3 2 5 8 14 15 13 14 14 13 14 14 14 14 13 13 13 13 13 12 12 12 12 11 11 11 11 12 11 12 13 15 16 17 18 18 18 15 12 12 12 12 13 16 17 15 16 17 16 17 17 18 18 17 16 17
3 3 3 5 5 5 6 4 2 3 3 3 4 6 7 9 11 9 6 5 5 6 6 7 5 1 5 3 1 2 3 3 4 6 12 14 12 12 12 12 13 13 13 13 13 12 12 11 11 11 11 12 12 12 12 12 11 11 9 9 11 12 12 13 13 14 13 11 12 13 13 12 12 13 15 15 13 14 18 21 21 20 18 16 17 19
4 4 5 8 8 8 8 9 9 9 7 7 9 10 10 9 10 8 5 5 5 5 6 7 6 3 2 3 1 1 3 4 4 4 9 11 10 10 11 11 11 11 12 12 12 11 11 11 11 11 10 11 11 11 11 11 11 11 11 11 10 10 11 11 10 11 12 10 10 12 12 12 11 8 7 8 8 10 17 23 24 24 24 23 24 24
3 5 7 10 11 13 13 14 15 13 12 12 12 13 13 11 11 9 6 7 8 6 7 6 7 8 7 5 5 4 2 3 4 6 6 8 10 9 10 10 10 11 11 11 11 11 11 11 11 10 10 10 10 10 10 10 10 10 10 9 8 8 8 8 7 7 9 9 9 9 9 10 9 8 7 7 8 9 13 17 18 19 21 21 22 22
4 6 8 10 13 14 15 15 15 14 13 13 14 15 14 13 13 11 9 11 10 8 9 9 9 10 11 10 9 8 7 6 5 7 8 4 7 10 10 10 10 10 10 10 10 11 10 10 10 11 10 9 9 9 9 8 8 9 9 8 8 7 6 6 5 5 3 3 3 4 5 6 6 8 9 11 13 13 12 13 13 12 12 13 14 16
3 4 6 9 12 14 14 15 14 14 14 14 16 16 14 13 15 14 12 14 13 12 13 14 12 11 11 10 10 10 13 13 9 8 8 8 9 9 10 11 12 11 11 10 10 9 8 8 9 10 10 9 9 9 8 7 7 8 8 7 6 6 5 4 4 5 4 2 1 1 2 3 4 4 5 7 8 9 8 8 9 8 8 9 10 12
3 2 4 6 9 11 12 13 13 13 14 15 16 16 14 15 16 15 13 11 10 11 13 13 11 9 8 9 10 12 14 16 14 12 11 11 12 12 11 12 13 14 13 11 10 8 6 6 6 7 8 8 8 8 9 8 7 7 6 6 5 5 4 3 2 3 4 4 3 1 1 0 2 3 3 4 4 5 6 6 6 7 9 11 11 13
3 3 5 5 7 8 9 12 13 14 15 16 16 15 16 15 12 11 12 10 8 10 11 10 9 6 7 9 10 10 11 13 14 12 10 10 13 16 17 16 17 18 17 14 11 12 10 6 5 5 5 5 6 6 7 7 6 7 7 6 6 5 4 3 1 1 1 2 2 1 1 3 4 4 4 5 5 5 6 6 6 7 9 10 11 13
3 4 5 6 7 7 10 12 12 12 12 12 8 7 11 11 9 11 12 10 8 7 7 8 6 4 8 10 8 6 8 12 14 14 14 17 15 11 13 17 17 16 16 16 14 13 13 9 6 5 2 2 3 4 6 6 6 7 7 5 5 4 2 2 2 2 2 2 2 1 2 3 4 4 4 5 6 6 7 7 7 8 9 10 11 13
6 6 6 6 6 8 10 11 11 9 8 7 4 3 7 9 9 10 10 9 10 9 7 8 8 7 7 8 8 6 6 9 13 15 13 13 13 12 12 15 15 13 12 15 14 10 11 10 7 5 1 2 2 3 5 5 4 6 5 3 4 4 3 3 3 4 3 3 3 3 3 4 3 4 5 5 6 7 8 8 8 9 10 11 12 13
6 5 5 5 6 8 9 8 9 8 6 6 6 5 7 8 8 10 11 9 11 11 10 10 10 10 10 9 8 7 6 7 11 15 14 12 11 11 11 13 12 9 11 12 9 5 10 11 7 3 1 3 4 6 6 5 4 4 4 4 4 5 4 4 4 4 4 4 4 3 4 4 4 5 6 7 7 8 8 8 9 9 10 10 12 12
8 6 5 5 6 7 7 7 9 8 7 10 8 8 9 5 4 6 8 7 8 10 10 9 8 9 11 11 9 8 8 9 10 12 11 8 10 12 13 17 16 10 6 7 8 6 7 7 4 1 3 5 7 8 8 6 4 4 4 5 5 5 5 5 5 5 5 5 5 4 4 4 5 6 7 7 8 8 8 8 9 10 10 10 11 13
8 5 4 5 5 6 7 8 8 9 10 9 4 9 10 5 4 4 4 5 8 8 8 8 8 9 10 11 12 11 12 11 9 8 8 8 7 7 10 13 13 13 11 0 9 7 2 1 3 6 7 7 8 9 9 8 6 6 6 6 6 6 7 6 6 6 6 6 6 5 5 6 7 8 8 8 8 8 8 10 10 11 11 11 12 13
9 7 6 6 6 6 7 8 7 9 7 1 4 7 9 9 8 6 3 4 5 9 11 9 9 10 11 13 16 15 11 8 5 4 10 12 9 6 7 8 7 8 9 5 1 2 3 4 6 8 8 8 9 11 12 11 9 8 8 8 8 8 8 8 8 8 7 7 7 7 7 8 8 9 9 10 10 10 11 12 12 12 12 12 13 13
8 7 6 7 7 6 7 7 7 7 3 3 4 5 9 10 9 6 3 2 6 11 11 8 8 10 10 11 14 12 8 5 2 4 11 14 12 9 9 9 8 8 6 5 5 6 7 8 8 8 9 12 14 14 14 13 11 11 10 10 10 10 10 10 10 9 9 9 9 9 9 9 10 11 12 13 13 13 13 14 14 14 13 13 13 14
6 6 6 8 8 7 7 7 6 3 1 4 4 6 8 8 7 6 4 1 7 12 11 9 9 11 11 12 12 8 5 5 5 7 11 13 11 10 10 10 11 11 10 8 8 9 10 11 10 10 12 15 16 16 15 14 13 14 13 12 12 12 12 12 12 12 12 12 12 11 11 11 11 12 13 13 13 13 14 15 15 15 15 14 14 14
3 4 6 7 8 7 7 8 6 1 2 3 6 8 8 6 4 3 3 3 7 11 12 12 11 11 12 13 11 8 8 12 13 13 14 15 13 13 14 13 12 13 12 12 12 13 14 14 13 13 15 17 18 17 17 17 17 17 16 15 15 15 15 15 15 14 14 14 14 14 13 13 12 13 13 14 15 15 16 16 16 16 15 14 14 14
1 2 4 6 7 6 5 7 6 2 0 3 7 9 7 4 1 2 5 9 10 11 13 13 12 12 13 13 13 13 14 16 17 17 17 17 17 17 17 16 16 15 16 16 16 16 16 16 17 17 19 19 19 18 18 18 19 18 18 17 17 16 16 15 15 15 16 16 16 16 15 14 14 15 16 16 17 18 18 17 16 15 15 14 13 15
1 2 5 5 5 5 5 7 7 3 1 4 7 7 4 3 4 6 9 12 13 13 15 15 14 14 15 15 16 16 16 16 17 18 19 19 19 18 18 19 19 19 19 19 19 18 19 20 21 21 22 22 21 20 20 20 20 20 20 19 18 17 17 17 17 17 17 17 18 17 17 16 17 17 18 18 19 19 19 17 15 13 13 13 14 17
1 2 5 3 1 2 5 5 2 2 4 7 7 6 5 7 9 10 12 13 14 15 16 16 16 16 16 16 18 18 18 19 19 19 20 21 21 20 20 20 21 21 22 22 22 22 21 22 23 24 24 24 23 22 22 22 22 22 21 21 19 18 19 18 18 19 19 20 20 20 19 18 18 18 19 19 19 18 17 16 14 12 12 13 15 18
3 4 4 3 2 3 5 6 4 5 9 10 8 8 9 11 11 13 15 16 17 18 17 17 18 17 16 18 20 20 20 21 22 22 23 24 24 24 24 23 23 24 25 25 25 24 24 25 26 26 26 25 24 24 23 23 23 23 22 21 20 20 21 21 20 21 21 21 21 20 19 18 17 17 18 17 17 17 17 16 14 12 13 15 17 19
10 12 7 3 4 6 7 8 9 11 13 13 11 11 12 13 14 16 15 15 17 18 16 16 17 18 19 20 22 23 23 24 25 26 26 26 26 27 27 27 27 26 27 27 27 27 27 27 28 28 27 26 25 24 23 23 24 25 25 23 22 22 22 22 23 23 22 22 21 20 19 18 18 18 17 17 17 17 16 16 15 15 15 16 16 18
11 12 7 5 6 7 6 7 10 12 15 16 15 15 15 14 15 17 17 16 18 18 17 17 18 20 22 23 24 25 26 26 26 27 26 26 27 27 28 29 29 28 27 28 27 27 27 27 27 27 27 26 24 23 22 23 24 26 25 24 24 23 22 22 22 22 22 21 21 20 20 19 19 18 16 16 15 15 15 17 18 18 16 15 15 15
6 8 5 6 6 7 7 10 13 15 16 15 14 14 14 15 19 20 19 18 18 18 18 19 21 22 23 24 24 25 26 26 25 25 25 26 27 27 28 29 30 29 28 28 27 27 25 24 24 24 24 24 24 23 23 24 24 24 25 25 25 24 24 24 24 24 23 22 21 21 20 20 19 18 16 16 16 17 18 20 19 17 14 14 15 15
6 5 5 6 6 7 8 9 12 13 12 12 14 16 18 20 21 22 21 20 20 20 20 20 20 21 22 23 23 23 25 25 24 24 25 26 27 27 28 28 29 29 29 29 29 27 25 24 24 25 25 25 26 25 25 25 25 25 25 26 25 24 24 25 25 25 24 23 23 23 21 20 19 17 16 17 19 20 20 20 18 16 14 14 15 16
7 5 5 5 5 5 7 11 14 11 9 12 16 19 20 21 21 21 20 20 19 19 19 19 20 20 21 21 21 21 23 24 24 24 26 27 27 27 26 27 28 28 28 28 27 26 24 24 25 25 26 26 25 25 25 26 26 25 24 24 25 25 25 24 25 25 24 23 23 23 21 21 20 19 19 20 21 20 19 18 18 17 15 14 14 15
5 6 7 6 6 7 10 16 17 13 12 15 18 19 20 20 20 18 18 18 18 18 19 21 22 22 22 22 22 21 22 23 24 24 26 26 26 26 26 26 26 26 26 26 24 23 22 23 24 25 25 25 24 24 24 25 25 24 24 24 24 25 25 25 25 26 25 24 24 24 22 21 21 21 21 23 22 20 19 19 17 15 12 10 11 14
Wind_Direction
222 233 236 240 236 277 299 315 345 337 338 330 306 286 248 231 237 216 141 141 187 239 215 231 238 231 225 203 206 206 169 175 253 267 202 178 167 173 180 177 175 170 165 171 179 181 177 173 175 178 179 174 169 175 178 169 172 177 166 162 158 152 149 142 127 104 97 104 96 103 106 103 97 38 57 101 119 164 148 151 154 156 177 192 166 153
221 252 248 245 267 26 341 354 353 333 328 316 302 300 279 246 245 191 125 138 143 271 267 264 264 245 223 223 227 251 191 154 227 271 251 218 204 209 188 170 169 161 163 174 173 177 179 174 182 184 181 182 175 178 184 175 177 181 172 169 164 159 157 147 132 123 129 140 115 110 111 108 104 93 95 96 61 29 56 143 206 249 168 122 151 167
212 245 252 241 123 57 317 347 335 320 315 299 290 288 290 282 264 115 103 142 141 157 260 262 265 264 241 233 241 253 246 186 205 251 259 236 217 240 205 160 159 159 165 173 171 177 181 178 188 190 186 188 180 179 188 182 180 181 178 176 170 164 163 155 146 145 149 152 145 137 140 154 155 150 156 233 30 60 52 58 51 47 93 83 51 43
237 220 241 229 94 29 304 320 306 305 290 274 281 272 269 268 261 187 130 180 309 104 276 279 280 293 281 266 280 251 235 193 207 239 251 243 218 239 231 157 155 163 169 172 174 178 183 185 192 192 192 194 185 187 194 187 183 182 182 182 173 169 168 162 159 158 159 160 161 162 164 171 170 171 189 201 76 72 58 61 62 61 88 99 94 85
262 234 108 102 83 332 288 292 268 274 267 251 249 254 266 265 268 289 118 112 339 318 286 285 285 284 268 228 240 254 217 178 219 234 234 235 218 230 240 165 159 168 173 174 175 178 183 188 195 196 197 197 191 197 199 191 186 183 185 184 176 175 171 168 170 163 155 160 166 169 165 165 149 139 137 101 79 72 64 60 61 62 69 76 95 116
258 324 107 133 174 214 243 259 238 234 260 254 236 238 260 276 290 308 130 132 267 265 218 234 257 252 243 229 227 233 203 194 224 230 224 228 219 217 225 186 161 163 170 175 175 178 180 184 196 201 202 199 196 202 204 195 189 184 186 187 180 179 176 172 174 164 155 157 159 158 155 153 134 120 118 107 91 93 84 59 60 62 66 70 78 94
223 191 220 261 271 253 250 254 244 234 247 262 282 266 253 265 286 284 265 247 247 264 197 192 242 265 249 254 248 229 205 198 211 221 224 222 218 213 215 214 168 162 168 173 176 183 184 185 195 202 205 204 200 207 208 199 192 186 186 189 183 183 182 177 174 167 163 159 152 148 142 137 129 127 142 148 132 130 118 80 72 62 63 65 63 69
261 191 166 292 276 257 256 253 239 230 240 259 352 299 270 257 263 259 258 258 253 279 243 189 235 264 261 267 270 251 210 192 198 211 224 221 211 203 203 212 202 185 176 172 176 191 194 192 198 205 208 206 203 210 211 202 195 188 188 192 187 186 186 179 175 171 169 165 152 143 136 133 140 153 164 159 142 134 118 93 79 62 60 67 65 72
283 200 149 246 255 252 255 255 243 230 226 229 231 278 281 270 263 256 252 252 254 276 262 223 239 246 253 262 242 214 210 206 206 203 215 229 212 196 202 200 186 183 165 166 176 185 191 196 205 210 212 209 206 210 211 205 198 190 190 194 189 189 190 182 178 174 174 171 154 144 141 146 165 177 169 153 143 135 122 107 103 98 75 69 71 79
254 246 242 244 244 244 245 245 248 247 238 241 277 299 287 271 268 264 262 265 259 260 263 257 255 253 257 262 240 201 194 214 220 194 196 210 193 165 154 59 40 19 54 162 187 187 191 200 206 209 213 211 210 214 215 206 198 192 192 194 191 191 192 184 180 178 177 174 160 149 146 157 182 183 165 159 155 145 136 119 116 122 92 74 71 69
227 205 272 273 255 255 259 256 242 261 262 252 261 274 266 255 255 256 262 276 266 250 255 254 250 253 258 260 268 215 164 194 207 166 166 183 181 127 88 64 327 294 314 218 213 195 193 200 203 206 208 203 202 209 212 204 197 194 193 194 193 193 196 188 181 182 181 177 168 155 151 166 189 178 167 173 165 156 155 136 114 112 96 86 76 65
236 184 196 242 252 264 276 279 268 250 257 258 250 264 270 253 246 257 248 248 255 251 252 262 256 244 242 257 346 75 113 163 181 160 168 169 152 117 89 100 59 26 333 314 62 89 142 189 205 207 206 203 200 203 205 201 199 196 194 195 192 194 199 193 185 185 185 181 174 163 156 171 190 179 176 183 170 167 166 148 134 123 85 80 81 72
259 248 223 205 209 238 265 268 255 238 234 245 248 249 263 258 245 259 251 235 250 260 259 287 289 248 239 235 160 127 147 178 144 138 166 160 124 118 118 118 98 68 91 80 67 70 93 160 205 207 210 215 210 206 203 199 199 197 196 197 192 195 201 198 190 188 189 186 180 171 163 174 190 183 182 189 179 179 177 165 162 146 88 68 76 79
244 263 256 223 183 192 234 254 246 231 203 220 243 240 245 253 246 249 254 243 245 262 258 268 297 264 256 247 165 150 150 153 132 111 129 127 111 121 151 137 119 87 71 72 70 67 73 87 154 198 209 212 204 202 202 200 200 198 199 200 194 195 202 201 195 191 192 190 185 179 171 178 191 185 184 194 192 188 184 182 177 165 190 330 39 60
248 253 239 231 170 156 206 246 265 284 252 220 236 245 235 234 249 255 262 264 267 292 281 249 263 260 241 0 116 123 119 130 149 131 116 120 126 133 141 115 102 85 72 70 68 63 63 67 75 143 182 198 193 194 197 200 203 199 201 203 197 195 200 201 198 194 194 193 189 185 180 184 193 190 186 192 200 194 185 194 192 174 204 249 320 25
254 266 218 211 140 122 228 253 264 285 286 247 228 238 236 229 249 261 267 278 291 307 287 238 243 265 137 206 140 125 137 152 154 143 143 157 147 132 121 103 94 87 78 72 69 67 66 65 68 97 133 167 180 189 194 198 205 205 206 205 198 196 199 200 200 198 196 195 192 189 187 189 193 195 190 187 201 203 185 196 208 189 201 238 263 286
255 284 217 185 168 212 253 273 270 262 293 316 264 244 256 254 253 259 262 266 262 263 265 240 246 234 171 209 190 164 183 171 153 153 157 152 134 122 114 105 100 93 87 82 76 73 72 73 75 85 109 136 154 180 193 198 206 208 211 209 200 195 195 198 201 199 197 197 195 192 191 193 193 198 196 186 196 213 196 196 212 203 197 218 245 259
264 287 280 218 234 228 228 275 293 275 282 289 269 255 243 241 252 263 269 263 252 255 256 244 253 246 227 224 183 186 197 172 168 173 151 136 130 124 112 105 105 102 99 93 84 81 81 81 82 85 96 121 148 176 188 197 204 205 209 210 203 196 191 192 195 196 196 195 194 194 193 193 192 194 199 189 193 217 213 202 209 212 204 209 235 254
248 273 276 265 267 240 181 202 268 261 253 250 272 303 291 254 261 256 255 260 260 267 269 259 260 258 259 244 176 188 197 185 190 182 155 151 145 127 115 111 108 104 103 98 92 89 88 91 98 100 104 116 140 174 184 189 195 199 202 202 203 201 193 187 186 187 192 193 194 196 196 195 193 190 193 190 192 210 219 212 208 211 213 212 225 246
265 278 281 266 277 274 188 192 254 257 234 225 240 275 273 270 279 257 249 262 264 269 275 271 270 275 314 213 178 192 200 202 200 178 166 163 142 126 122 115 106 103 103 101 100 97 97 114 123 119 121 127 128 139 162 175 184 187 186 186 194 198 193 187 181 175 180 187 190 195 197 198 198 196 194 193 197 203 212 217 212 209 219 224 223 237
279 277 276 271 284 286 246 214 265 296 288 244 233 245 250 250 260 266 265 260 266 271 278 283 279 319 49 45 131 178 190 236 222 184 163 137 124 120 120 114 107 104 102 101 106 104 101 121 135 130 130 135 133 133 143 153 160 165 167 171 178 186 189 187 182 176 177 181 186 192 196 199 203 204 202 202 206 210 215 221 218 210 214 226 232 238
295 270 270 272 274 272 262 249 258 275 294 298 290 274 283 287 271 274 272 267 280 287 286 288 283 15 29 1 2 113 85 30 259 202 147 122 118 116 116 116 112 108 106 104 105 105 101 106 119 120 120 138 145 140 140 144 146 148 152 160 165 170 178 179 177 178 177 176 183 190 193 200 208 212 213 211 210 218 227 231 230 226 221 224 235 243
28 293 275 271 266 273 279 279 278 275 271 284 289 280 286 295 286 269 269 280 297 295 291 293 293 32 8 331 338 345 78 138 246 215 132 119 121 123 121 122 120 114 110 107 105 107 107 105 107 107 108 132 153 153 152 150 144 139 138 145 157 165 171 178 181 183 184 185 189 192 192 196 204 210 215 216 212 217 231 240 242 242 238 236 237 238
31 268 262 269 274 282 279 274 274 267 245 252 269 276 282 286 282 273 278 295 295 286 289 285 280 24 23 323 349 349 307 178 199 173 130 124 129 133 131 127 125 121 117 117 115 115 116 114 114 112 110 118 133 146 158 162 158 152 146 146 154 162 169 177 183 186 192 195 202 217 214 207 211 216 219 223 223 226 235 244 250 252 250 252 250 240
328 245 240 261 274 277 263 251 253 253 245 246 278 299 297 294 289 277 275 289 284 281 284 279 277 110 108 309 349 327 289 223 209 169 137 133 138 140 138 135 132 130 128 126 125 124 123 121 119 117 116 116 117 121 133 148 158 163 166 165 163 164 169 176 180 184 189 196 215 237 239 228 226 226 228 231 227 226 232 240 252 258 254 251 251 245
291 274 273 268 267 271 268 266 292 318 320 311 301 291 289 303 309 301 285 272 271 282 280 274 285 151 147 167 188 272 273 273 257 191 147 141 147 145 143 143 141 140 137 133 130 129 126 122 120 119 119 119 119 119 118 120 126 131 138 150 162 170 174 177 181 184 187 196 208 217 222 222 217 219 233 246 242 236 240 243 247 253 252 250 257 258
290 282 278 272 269 275 283 296 316 328 315 292 286 283 277 282 294 299 294 272 277 301 290 278 298 313 192 179 180 277 273 280 280 216 164 153 157 157 149 150 153 149 145 141 136 133 129 125 121 118 117 118 119 120 119 118 118 118 116 118 133 149 156 160 168 174 173 173 178 184 191 199 201 199 220 252 262 253 248 243 241 246 253 259 263 262
276 263 258 265 268 272 279 289 297 300 292 285 287 287 285 286 287 289 286 279 282 285 274 281 313 319 313 320 339 349 317 273 275 261 216 165 162 171 165 165 169 162 156 152 147 144 136 130 129 127 125 124 122 121 119 118 117 116 117 117 119 125 130 134 141 153 162 164 169 179 183 188 202 209 212 230 242 236 236 237 238 242 249 254 254 254
248 259 258 263 266 268 273 277 281 282 281 281 280 278 279 281 279 274 268 270 274 274 275 288 301 296 295 302 311 317 310 282 256 264 272 234 188 187 181 184 189 178 171 166 158 154 147 140 140 139 137 134 132 130 126 126 126 123 120 116 111 112 116 119 118 120 137 159 183 207 215 223 234 235 240 251 249 241 240 246 250 250 248 251 257 260
217 257 267 274 276 276 276 278 283 287 285 283 281 278 279 277 273 274 275 273 271 273 278 283 284 281 285 295 303 306 305 296 273 253 268 273 250 219 199 203 210 204 195 183 171 165 158 155 152 145 145 144 141 143 140 133 135 133 125 119 115 109 107 114 127 123 110 108 185 245 255 271 284 278 273 276 269 262 264 270 280 286 281 276 276 275
161 261 290 298 288 283 285 285 285 284 281 282 282 285 289 286 282 283 283 282 282 279 280 286 291 290 292 299 299 296 294 291 278 255 239 240 247 240 224 221 228 234 231 211 193 189 179 172 170 157 152 152 148 149 148 141 142 144 137 130 121 111 120 148 182 161 144 160 190 186 116 245 293 301 293 292 289 285 289 295 296 294 291 290 287 282
162 255 294 301 281 278 285 284 282 285 285 281 280 285 285 280 282 287 277 269 274 281 282 284 286 299 319 313 294 287 298 304 299 292 290 286 265 243 235 239 239 240 245 239 212 196 189 188 185 167 154 163 166 164 158 155 158 156 150 150 147 144 160 181 189 92 151 185 205 206 199 214 229 240 254 266 273 275 275 275 273 268 269 273 274 275
239 254 268 276 276 284 290 291 298 301 291 281 285 305 299 290 303 312 297 286 289 293 290 282 281 331 351 337 319 320 340 333 322 322 331 333 322 285 261 260 246 232 240 250 239 211 195 190 181 166 167 185 179 175 169 166 169 169 169 171 172 176 189 170 147 159 182 196 204 228 246 244 251 265 266 266 269 269 264 264 268 268 266 264 260 258
268 268 272 272 273 283 289 298 304 287 269 276 292 317 303 298 304 306 307 319 325 323 322 320 331 346 339 326 322 332 347 332 324 324 321 320 322 316 300 285 265 238 232 248 251 222 187 174 155 142 171 271 254 230 204 183 184 195 201 202 188 188 192 179 189 206 207 209 216 229 248 257 265 267 263 261 264 264 264 265 265 263 263 264 262 258
250 255 274 275 269 276 286 290 279 262 262 284 289 311 315 304 308 305 297 305 319 324 330 335 345 346 335 331 328 325 329 320 316 319 312 307 319 325 328 330 314 272 242 241 241 189 155 154 144 126 269 284 285 277 260 235 217 215 218 214 201 205 215 211 214 219 218 227 240 245 257 265 264 259 258 263 269 273 276 277 274 270 266 266 265 264
250 251 259 266 265 271 276 267 259 267 288 286 300 7 7 324 302 303 288 292 323 340 343 335 332 332 324 318 313 317 337 331 309 306 309 329 5 16 16 13 10 357 307 239 201 156 125 131 137 269 271 272 285 288 276 254 234 223 220 221 223 235 241 232 229 235 239 247 255 260 262 261 259 259 262 269 276 282 284 282 279 277 274 272 270 265
260 259 245 249 253 257 264 263 264 277 286 285 324 33 28 9 9 357 312 309 325 346 0 348 336 334 328 328 335 344 351 341 315 314 336 345 351 3 9 9 12 16 12 33 179 175 154 164 259 270 263 266 277 279 276 274 269 260 247 243 244 246 246 244 245 249 250 251 255 262 262 256 257 262 267 273 278 282 284 285 283 280 277 275 273 269
237 234 232 237 238 246 259 265 269 271 274 311 67 59 44 30 22 14 339 317 348 20 26 18 9 6 3 5 6 0 348 327 303 339 360 355 338 325 347 354 351 4 12 17 162 235 257 255 264 265 265 272 278 279 280 278 273 267 259 256 256 254 254 255 254 253 253 255 257 256 255 255 257 260 262 265 272 277 280 287 291 287 279 274 270 268
235 234 243 248 246 247 253 259 264 264 271 58 53 46 42 25 0 340 294 293 16 21 13 4 2 2 0 0 359 354 337 312 318 358 352 351 352 348 345 341 331 328 331 320 306 291 268 262 265 264 269 275 275 277 277 272 269 269 265 263 262 260 259 256 254 256 258 260 260 257 255 254 253 256 261 265 272 277 281 289 298 295 285 274 269 268
259 258 252 251 250 248 251 257 261 261 55 47 17 19 29 16 347 315 258 267 2 356 351 354 353 348 346 342 337 330 317 310 320 332 328 326 326 321 317 320 319 315 310 300 295 292 287 282 273 266 270 273 273 274 272 269 270 269 265 264 261 258 259 258 257 260 261 261 263 262 261 260 259 262 267 268 270 275 279 285 293 294 288 276 265 263
275 281 267 256 250 247 248 253 257 254 71 28 7 1 354 346 332 290 268 313 340 339 343 347 341 334 334 331 322 309 315 325 322 313 311 310 306 301 301 304 303 297 293 291 290 295 300 299 290 282 277 275 275 274 271 271 271 267 264 264 261 259 259 259 259 261 261 263 265 264 263 263 262 263 265 265 267 270 273 278 282 284 282 273 263 259
224 270 265 254 252 257 255 252 256 252 114 333 348 350 333 313 301 302 316 321 321 328 334 330 326 325 320 314 309 302 305 314 316 310 308 307 306 305 304 302 297 291 288 288 287 287 289 289 287 281 276 274 275 273 270 270 269 268 266 264 261 261 261 260 259 260 261 262 262 262 263 263 262 262 263 263 265 267 270 274 276 276 273 266 259 255
266 271 261 252 256 270 262 254 258 256 266 315 339 358 6 353 343 329 322 320 320 324 322 313 308 312 311 308 307 305 302 302 303 304 304 300 299 299 297 294 291 287 285 284 281 278 276 276 276 276 276 278 280 280 278 275 272 270 268 265 264 264 261 259 259 259 260 261 261 262 263 263 264 265 265 264 266 269 271 274 275 273 267 260 255 251
305 268 271 283 341 273 261 257 237 203 261 294 324 349 343 331 330 326 318 312 311 311 311 308 304 305 309 310 307 305 304 301 297 295 295 294 293 293 292 292 290 286 285 283 279 278 278 277 277 278 278 279 280 279 277 274 271 268 266 265 267 267 264 262 260 260 261 262 262 263 264 265 267 266 263 263 264 264 265 270 275 274 264 255 252 248
9 0 313 320 6 308 293 301 297 271 281 301 331 344 329 318 312 308 303 300 303 304 303 305 307 309 311 310 307 305 302 300 299 296 294 293 292 290 288 287 286 285 285 284 281 279 279 281 282 282 280 278 278 278 277 275 273 272 271 269 269 269 267 265 263 263 265 264 263 263 264 266 267 265 262 260 257 258 262 266 265 260 257 257 253 244
30 14 348 316 312 310 303 306 311 309 311 323 333 324 311 306 306 311 318 326 330 329 323 315 312 311 309 305 304 302 299 298 297 294 291 291 293 295 292 287 283 282 282 282 280 278 277 278 279 280 279 278 278 279 279 278 277 276 275 274 271 270 269 266 265 264 263 261 261 262 263 263 263 263 261 257 256 259 259 252 246 250 257 259 252 242
44 23 352 305 297 300 301 309 317 316 314 317 316 307 302 312 329 339 346 349 343 335 326 316 308 305 303 301 300 299 298 300 300 297 294 292 293 296 296 293 290 287 283 281 281 281 280 277 275 276 279 280 280 280 278 277 277 276 275 274 271 269 268 266 266 265 262 261 262 262 261 262 261 260 257 252 253 257 254 249 252 258 259 252 244 244
44 30 343 294 287 291 296 303 310 312 310 310 312 312 320 336 344 341 336 332 329 323 316 310 305 303 301 298 297 296 295 296 297 297 296 293 291 292 293 294 295 293 289 288 289 287 287 286 284 284 286 285 284 282 279 278 278 275 273 273 270 267 265 262 262 264 262 261 262 260 258 259 257 255 254 254 255 257 259 259 258 255 251 244 244 250
316 325 309 299 297 290 288 307 327 332 325 318 320 325 333 337 334 327 323 321 319 315 311 308 305 302 298 295 294 294 291 290 291 292 291 290 289 290 289 290 291 290 288 290 291 291 291 291 290 289 288 285 283 281 278 276 274 270 268 268 267 266 265 262 261 262 260 259 259 259 257 256 253 252 257 260 259 256 254 254 252 248 247 247 250 257
305 306 318 317 302 292 311 336 346 340 315 309 316 321 324 324 320 318 317 316 313 311 310 308 305 303 299 297 296 295 292 292 293 292 291 290 289 290 291 290 291 290 287 287 289 290 289 287 285 284 281 279 278 277 275 273 271 268 266 265 264 264 264 261 259 259 258 257 256 256 254 252 252 253 255 252 249 246 243 244 250 253 254 257 257 250
3 357 3 340 311 313 327 332 333 324 308 310 316 316 315 315 314 315 316 315 313 313 310 308 307 306 304 301 299 297 295 295 295 293 292 291 290 291 292 291 291 292 291 289 290 292 289 286 283 281 280 279 279 278 276 274 272 269 267 265 263 261 260 259 258 257 257 255 253 252 251 250 251 250 246 240 238 240 241 243 247 248 249 252 242 220